SUR4160 SAVC-SAZN

Flight info

Callsign SUR4160
Flight time 1h 44m
Altitude 23000
Route PUBLO T105 ILTOS
Aircraft DH8D/M-SDE2FGIRW/L

Departure

Time 2026-05-04 11:52
Airport General Enrique Mosconi International Airport (SAVC)

Arrival

Time 2026-05-04 13:37
Airport Presidente Perón International Airport (SAZN)
Time Latitude Longitude Altitude Speed Heading
2026-05-04 11:13 -45.78963 -67.47177 186 ft 0 kts 235°
2026-05-04 11:42 -45.78968 -67.47179 186 ft 1 kts 180°
2026-05-04 11:42 -45.78958 -67.47151 185 ft 7 kts 32°
2026-05-04 11:42 -45.78921 -67.47067 180 ft 15 kts 73°
2026-05-04 11:43 -45.78908 -67.46933 177 ft 2 kts 89°
2026-05-04 11:43 -45.78908 -67.46867 176 ft 10 kts 89°
2026-05-04 11:43 -45.78906 -67.46780 174 ft 3 kts 60°
2026-05-04 11:43 -45.78893 -67.46780 174 ft 1 kts 337°
2026-05-04 11:44 -45.78885 -67.46785 174 ft 1 kts 335°
2026-05-04 11:44 -45.78872 -67.46793 174 ft 2 kts 334°
2026-05-04 11:44 -45.78860 -67.46798 173 ft 2 kts 353°
2026-05-04 11:44 -45.78829 -67.46802 173 ft 5 kts 348°
2026-05-04 11:45 -45.78782 -67.46800 172 ft 6 kts 26°
2026-05-04 11:45 -45.78749 -67.46731 170 ft 8 kts 68°
2026-05-04 11:45 -45.78727 -67.46609 164 ft 16 kts 82°
2026-05-04 11:45 -45.78699 -67.46423 159 ft 21 kts 82°
2026-05-04 11:46 -45.78685 -67.46271 153 ft 10 kts 82°
2026-05-04 11:46 -45.78665 -67.46140 150 ft 15 kts 68°
2026-05-04 11:46 -45.78638 -67.45963 145 ft 20 kts 79°
2026-05-04 11:46 -45.78622 -67.45836 141 ft 6 kts 80°
2026-05-04 11:47 -45.78610 -67.45731 139 ft 14 kts 80°
2026-05-04 11:47 -45.78589 -67.45561 132 ft 20 kts 80°
2026-05-04 11:47 -45.78572 -67.45418 127 ft 13 kts 79°
2026-05-04 11:47 -45.78552 -67.45258 121 ft 18 kts 79°
2026-05-04 11:48 -45.78528 -67.45061 115 ft 14 kts 81°
2026-05-04 11:48 -45.78518 -67.44967 114 ft 10 kts 81°
2026-05-04 11:48 -45.78480 -67.44852 111 ft 8 kts 34°
2026-05-04 11:48 -45.78434 -67.44823 109 ft 10 kts
2026-05-04 11:49 -45.78394 -67.44814 108 ft 7 kts
2026-05-04 11:49 -45.78345 -67.44832 108 ft 6 kts 332°
2026-05-04 11:49 -45.78316 -67.44859 108 ft 2 kts 308°
2026-05-04 11:49 -45.78308 -67.44904 110 ft 6 kts 283°
2026-05-04 11:50 -45.78308 -67.44939 111 ft 2 kts 256°
2026-05-04 11:50 -45.78315 -67.44974 113 ft 5 kts 256°
2026-05-04 11:50 -45.78329 -67.45064 115 ft 12 kts 257°
2026-05-04 11:50 -45.78353 -67.45229 119 ft 22 kts 261°
2026-05-04 11:51 -45.78370 -67.45384 124 ft 2 kts 261°
2026-05-04 11:51 -45.78384 -67.45504 129 ft 31 kts 259°
2026-05-04 11:51 -45.78470 -67.46146 147 ft 97 kts 258°
2026-05-04 11:51 -45.78605 -67.47302 224 ft 130 kts 262°
2026-05-04 11:52 -45.78647 -67.48640 548 ft 139 kts 275°
2026-05-04 11:52 -45.78274 -67.49934 1158 ft 142 kts 303°
2026-05-04 11:52 -45.77523 -67.50816 1736 ft 150 kts 322°
2026-05-04 11:52 -45.76443 -67.51251 2141 ft 174 kts 347°
2026-05-04 11:53 -45.75200 -67.51053 2735 ft 187 kts 359°
2026-05-04 11:53 -45.73933 -67.50557 3324 ft 193 kts
2026-05-04 11:53 -45.72630 -67.49930 3857 ft 204 kts
2026-05-04 11:53 -45.71204 -67.49210 3845 ft 230 kts
2026-05-04 11:55 -45.61333 -67.46111 5292 ft 204 kts 351°
2026-05-04 11:55 -45.59919 -67.45929 5599 ft 206 kts 349°
2026-05-04 11:56 -45.58491 -67.45815 5921 ft 209 kts 348°
2026-05-04 11:56 -45.57020 -67.45748 6268 ft 216 kts 348°
2026-05-04 11:56 -45.55490 -67.45695 6643 ft 222 kts 347°
2026-05-04 11:56 -45.53931 -67.45646 7007 ft 229 kts 349°
2026-05-04 11:57 -45.52325 -67.45628 7347 ft 236 kts 348°
2026-05-04 11:57 -45.50668 -67.45646 7688 ft 242 kts 347°
2026-05-04 11:57 -45.48944 -67.45702 8035 ft 249 kts 348°
2026-05-04 11:57 -45.47191 -67.45788 8374 ft 255 kts 347°
2026-05-04 11:58 -45.45401 -67.45892 8712 ft 261 kts 348°
2026-05-04 11:58 -45.43572 -67.46024 9050 ft 266 kts 348°
2026-05-04 11:58 -45.41703 -67.46193 9387 ft 271 kts 348°
2026-05-04 11:58 -45.39814 -67.46400 9717 ft 275 kts 348°
2026-05-04 11:59 -45.37899 -67.46638 10051 ft 279 kts 348°
2026-05-04 11:59 -45.35957 -67.46893 10382 ft 282 kts 347°
2026-05-04 11:59 -45.34010 -67.47148 10711 ft 284 kts 347°
2026-05-04 11:59 -45.32024 -67.47398 11042 ft 287 kts 348°
2026-05-04 12:00 -45.30051 -67.47736 11372 ft 287 kts 343°
2026-05-04 12:00 -45.28090 -67.48219 11695 ft 288 kts 343°
2026-05-04 12:00 -45.26100 -67.48730 12029 ft 289 kts 342°
2026-05-04 12:00 -45.24123 -67.49226 12354 ft 291 kts 342°
2026-05-04 12:01 -45.22121 -67.49730 12688 ft 292 kts 342°
2026-05-04 12:01 -45.20131 -67.50214 13009 ft 293 kts 343°
2026-05-04 12:02 -45.07849 -67.52307 14978 ft 301 kts 349°
2026-05-04 12:03 -45.05754 -67.52450 15306 ft 301 kts 348°
2026-05-04 12:03 -45.03664 -67.52597 15632 ft 301 kts 348°
2026-05-04 12:03 -45.01575 -67.52748 15960 ft 301 kts 348°
2026-05-04 12:03 -44.99501 -67.52903 16284 ft 302 kts 348°
2026-05-04 12:04 -44.97398 -67.53061 16609 ft 302 kts 348°
2026-05-04 12:04 -44.95315 -67.53219 16937 ft 302 kts 348°
2026-05-04 12:04 -44.93229 -67.53378 17265 ft 301 kts 347°
2026-05-04 12:04 -44.91119 -67.53541 17595 ft 301 kts 347°
2026-05-04 12:05 -44.89036 -67.53702 17924 ft 300 kts 347°
2026-05-04 12:05 -44.86965 -67.53862 18250 ft 300 kts 348°
2026-05-04 12:05 -44.84875 -67.54024 18577 ft 300 kts 347°
2026-05-04 12:05 -44.82790 -67.54187 18900 ft 300 kts 347°
2026-05-04 12:06 -44.80715 -67.54348 19225 ft 300 kts 347°
2026-05-04 12:06 -44.78627 -67.54511 19551 ft 300 kts 347°
2026-05-04 12:06 -44.76553 -67.54672 19873 ft 301 kts 346°
2026-05-04 12:06 -44.74477 -67.54838 20206 ft 300 kts 346°
2026-05-04 12:07 -44.72391 -67.54997 20526 ft 301 kts 346°
2026-05-04 12:07 -44.70285 -67.55157 20845 ft 300 kts 346°
2026-05-04 12:07 -44.68214 -67.55323 21177 ft 300 kts 345°
2026-05-04 12:07 -44.66142 -67.55483 21510 ft 300 kts 345°
2026-05-04 12:08 -44.64045 -67.55640 21832 ft 300 kts 345°
2026-05-04 12:08 -44.61972 -67.55804 22154 ft 300 kts 345°
2026-05-04 12:08 -44.59903 -67.55960 22463 ft 296 kts 345°
2026-05-04 12:08 -44.57872 -67.56111 22773 ft 285 kts 344°
2026-05-04 12:09 -44.55924 -67.56255 23078 ft 275 kts 343°
2026-05-04 12:09 -44.54064 -67.56393 23386 ft 265 kts 342°
2026-05-04 12:09 -44.52254 -67.56525 23694 ft 254 kts 341°
2026-05-04 12:09 -44.50540 -67.56651 24006 ft 243 kts 341°
2026-05-04 12:10 -44.48896 -67.56770 24311 ft 231 kts 340°
2026-05-04 12:10 -44.47338 -67.56879 24615 ft 218 kts 339°
2026-05-04 12:10 -44.45869 -67.56981 24911 ft 203 kts 338°
2026-05-04 12:10 -44.44461 -67.57091 24881 ft 204 kts 337°
2026-05-04 12:11 -44.43052 -67.57199 24908 ft 202 kts 337°
2026-05-04 12:11 -44.41662 -67.57313 24912 ft 199 kts 336°
2026-05-04 12:11 -44.40281 -67.57426 24920 ft 200 kts 338°
2026-05-04 12:11 -44.38828 -67.57557 24942 ft 218 kts 338°
2026-05-04 12:12 -44.37253 -67.57708 25061 ft 238 kts 339°
2026-05-04 12:12 -44.35504 -67.57875 24970 ft 266 kts 341°
2026-05-04 12:12 -44.33572 -67.58046 24926 ft 290 kts 342°
2026-05-04 12:12 -44.31491 -67.58213 24936 ft 309 kts 343°
2026-05-04 12:13 -44.29282 -67.58384 24958 ft 324 kts 343°
2026-05-04 12:14 -44.13500 -67.59534 24942 ft 312 kts 343°
2026-05-04 12:15 -44.11342 -67.59698 24926 ft 310 kts 343°
2026-05-04 12:15 -44.09199 -67.59859 24911 ft 308 kts 343°
2026-05-04 12:15 -44.07088 -67.60021 24938 ft 306 kts 343°
2026-05-04 12:15 -44.04962 -67.60181 24933 ft 305 kts 342°
2026-05-04 12:16 -44.02845 -67.60343 24928 ft 304 kts 343°
2026-05-04 12:16 -44.00741 -67.60503 24926 ft 303 kts 342°
2026-05-04 12:16 -43.98649 -67.60663 24940 ft 302 kts 343°
2026-05-04 12:16 -43.96527 -67.60825 24940 ft 301 kts 343°
2026-05-04 12:17 -43.94459 -67.60982 24930 ft 301 kts 343°
2026-05-04 12:17 -43.92365 -67.61139 24931 ft 301 kts 343°
2026-05-04 12:17 -43.90273 -67.61299 24941 ft 300 kts 343°
2026-05-04 12:17 -43.88198 -67.61455 24942 ft 300 kts 342°
2026-05-04 12:18 -43.86113 -67.61616 24938 ft 300 kts 342°
2026-05-04 12:18 -43.84032 -67.61771 24938 ft 300 kts 342°
2026-05-04 12:18 -43.81958 -67.61926 24945 ft 299 kts 342°
2026-05-04 12:18 -43.79886 -67.62086 24940 ft 298 kts 342°
2026-05-04 12:19 -43.77824 -67.62309 24947 ft 296 kts 341°
2026-05-04 12:19 -43.75752 -67.62572 24941 ft 296 kts 340°
2026-05-04 12:19 -43.73707 -67.62830 24946 ft 296 kts 340°
2026-05-04 12:19 -43.71665 -67.63089 24954 ft 295 kts 340°
2026-05-04 12:20 -43.69626 -67.63345 24949 ft 296 kts 341°
2026-05-04 12:20 -43.67568 -67.63596 24950 ft 296 kts 341°
2026-05-04 12:20 -43.65527 -67.63847 24954 ft 295 kts 340°
2026-05-04 12:20 -43.63483 -67.64099 24961 ft 295 kts 340°
2026-05-04 12:21 -43.61429 -67.64349 24945 ft 295 kts 340°
2026-05-04 12:21 -43.59391 -67.64597 24953 ft 294 kts 341°
2026-05-04 12:21 -43.57349 -67.64846 24950 ft 295 kts 341°
2026-05-04 12:21 -43.55309 -67.65091 24956 ft 295 kts 341°
2026-05-04 12:22 -43.53261 -67.65340 24962 ft 295 kts 341°
2026-05-04 12:22 -43.51211 -67.65589 24946 ft 297 kts 341°
2026-05-04 12:22 -43.49175 -67.65836 24959 ft 297 kts 341°
2026-05-04 12:22 -43.47092 -67.66087 24959 ft 297 kts 341°
2026-05-04 12:23 -43.45059 -67.66334 24968 ft 297 kts 341°
2026-05-04 12:23 -43.42999 -67.66582 24966 ft 298 kts 341°
2026-05-04 12:23 -43.40921 -67.66834 24958 ft 298 kts 341°
2026-05-04 12:23 -43.38852 -67.67082 24965 ft 299 kts 341°
2026-05-04 12:24 -43.36786 -67.67332 24973 ft 298 kts 341°
2026-05-04 12:24 -43.34725 -67.67582 24961 ft 299 kts 341°
2026-05-04 12:24 -43.32652 -67.67827 24982 ft 299 kts 341°
2026-05-04 12:24 -43.30583 -67.68074 24966 ft 299 kts 341°
2026-05-04 12:25 -43.28510 -67.68323 24967 ft 299 kts 342°
2026-05-04 12:25 -43.26444 -67.68569 24964 ft 299 kts 341°
2026-05-04 12:25 -43.24352 -67.68820 24954 ft 299 kts 341°
2026-05-04 12:25 -43.22291 -67.69069 24962 ft 299 kts 341°
2026-05-04 12:26 -43.20231 -67.69309 24962 ft 300 kts 342°
2026-05-04 12:26 -43.18136 -67.69541 24975 ft 298 kts 341°
2026-05-04 12:26 -43.16082 -67.69791 24982 ft 299 kts 341°
2026-05-04 12:26 -43.14014 -67.70043 24975 ft 299 kts 341°
2026-05-04 12:27 -43.11923 -67.70298 24965 ft 299 kts 341°
2026-05-04 12:27 -43.09857 -67.70544 24972 ft 299 kts 341°
2026-05-04 12:27 -43.07790 -67.70792 24983 ft 298 kts 341°
2026-05-04 12:27 -43.05727 -67.71040 24979 ft 298 kts 341°
2026-05-04 12:28 -43.03639 -67.71291 24975 ft 299 kts 341°
2026-05-04 12:28 -43.01577 -67.71535 24972 ft 298 kts 341°
2026-05-04 12:28 -42.99513 -67.71778 24980 ft 298 kts 341°
2026-05-04 12:28 -42.97450 -67.72024 24984 ft 298 kts 341°
2026-05-04 12:29 -42.95383 -67.72271 24980 ft 298 kts 341°
2026-05-04 12:29 -42.93325 -67.72514 24981 ft 298 kts 341°
2026-05-04 12:29 -42.91264 -67.72760 24984 ft 298 kts 341°
2026-05-04 12:29 -42.89200 -67.73004 24978 ft 298 kts 341°
2026-05-04 12:30 -42.87141 -67.73246 24986 ft 298 kts 341°
2026-05-04 12:30 -42.85075 -67.73493 24999 ft 298 kts 341°
2026-05-04 12:30 -42.83004 -67.73737 24994 ft 299 kts 341°
2026-05-04 12:30 -42.80913 -67.73984 24993 ft 299 kts 341°
2026-05-04 12:31 -42.78863 -67.74225 24988 ft 299 kts 342°
2026-05-04 12:31 -42.76790 -67.74468 24975 ft 299 kts 341°
2026-05-04 12:31 -42.74692 -67.74718 24985 ft 300 kts 341°
2026-05-04 12:31 -42.72625 -67.74960 24983 ft 300 kts 342°
2026-05-04 12:32 -42.70557 -67.75204 24972 ft 300 kts 341°
2026-05-04 12:32 -42.66389 -67.75693 24985 ft 300 kts 341°
2026-05-04 12:32 -42.64320 -67.75937 24989 ft 300 kts 341°
2026-05-04 12:33 -42.62235 -67.76180 25003 ft 300 kts 341°
2026-05-04 12:33 -42.60144 -67.76427 25000 ft 300 kts 341°
2026-05-04 12:33 -42.58073 -67.76668 25005 ft 300 kts 341°
2026-05-04 12:33 -42.55998 -67.76910 25004 ft 300 kts 341°
2026-05-04 12:34 -42.53923 -67.77155 24991 ft 301 kts 341°
2026-05-04 12:34 -42.51844 -67.77399 24990 ft 301 kts 342°
2026-05-04 12:34 -42.49734 -67.77644 24997 ft 301 kts 342°
2026-05-04 12:34 -42.47673 -67.77885 25003 ft 301 kts 341°
2026-05-04 12:35 -42.45588 -67.78128 25002 ft 301 kts 341°
2026-05-04 12:35 -42.43504 -67.78371 25009 ft 302 kts 341°
2026-05-04 12:35 -42.41416 -67.78614 25020 ft 301 kts 341°
2026-05-04 12:35 -42.39326 -67.78858 25018 ft 301 kts 342°
2026-05-04 12:36 -42.37209 -67.79104 24997 ft 302 kts 341°
2026-05-04 12:36 -42.35120 -67.79353 25013 ft 302 kts 342°
2026-05-04 12:36 -42.33028 -67.79608 25011 ft 302 kts 342°
2026-05-04 12:36 -42.30936 -67.79864 25010 ft 302 kts 341°
2026-05-04 12:37 -42.28851 -67.80119 25012 ft 303 kts 341°
2026-05-04 12:37 -42.26759 -67.80376 25015 ft 303 kts 341°
2026-05-04 12:37 -42.24665 -67.80630 25016 ft 303 kts 341°
2026-05-04 12:37 -42.22569 -67.80885 25017 ft 303 kts 341°
2026-05-04 12:38 -42.20444 -67.81143 25021 ft 303 kts 341°
2026-05-04 12:38 -42.18348 -67.81396 25026 ft 303 kts 341°
2026-05-04 12:38 -42.16257 -67.81651 25022 ft 303 kts 341°
2026-05-04 12:38 -42.14156 -67.81905 25030 ft 303 kts 342°
2026-05-04 12:39 -42.12064 -67.82159 25035 ft 303 kts 342°
2026-05-04 12:39 -42.09942 -67.82415 25040 ft 303 kts 341°
2026-05-04 12:39 -42.07848 -67.82669 25039 ft 303 kts 341°
2026-05-04 12:39 -42.05753 -67.82922 25022 ft 304 kts 341°
2026-05-04 12:40 -42.03656 -67.83176 25032 ft 303 kts 341°
2026-05-04 12:40 -42.01540 -67.83431 25036 ft 303 kts 342°
2026-05-04 12:40 -41.99441 -67.83684 25028 ft 304 kts 341°
2026-05-04 12:40 -41.97348 -67.83935 25029 ft 303 kts 341°
2026-05-04 12:41 -41.95226 -67.84190 25033 ft 303 kts 341°
2026-05-04 12:41 -41.93132 -67.84442 25040 ft 303 kts 341°
2026-05-04 12:41 -41.91043 -67.84694 25032 ft 304 kts 341°
2026-05-04 12:41 -41.88911 -67.84950 25030 ft 304 kts 341°
2026-05-04 12:42 -41.86807 -67.85204 25034 ft 304 kts 341°
2026-05-04 12:42 -41.84704 -67.85456 25032 ft 304 kts 341°
2026-05-04 12:42 -41.82598 -67.85708 25021 ft 303 kts 342°
2026-05-04 12:42 -41.80499 -67.85958 25033 ft 303 kts 341°
2026-05-04 12:43 -41.78398 -67.86210 25042 ft 303 kts 341°
2026-05-04 12:43 -41.76295 -67.86462 25030 ft 303 kts 341°
2026-05-04 12:43 -41.74195 -67.86713 25050 ft 303 kts 341°
2026-05-04 12:43 -41.72098 -67.86964 25064 ft 303 kts 341°
2026-05-04 12:44 -41.69998 -67.87215 25043 ft 303 kts 341°
2026-05-04 12:44 -41.67899 -67.87466 25046 ft 304 kts 341°
2026-05-04 12:44 -41.65797 -67.87717 25059 ft 304 kts 341°
2026-05-04 12:44 -41.63692 -67.87968 25053 ft 304 kts 341°
2026-05-04 12:45 -41.61585 -67.88219 25062 ft 303 kts 341°
2026-05-04 12:45 -41.59488 -67.88468 25072 ft 304 kts 341°
2026-05-04 12:45 -41.57358 -67.88722 25058 ft 304 kts 341°
2026-05-04 12:45 -41.55249 -67.88973 25061 ft 305 kts 341°
2026-05-04 12:46 -41.53152 -67.89222 25065 ft 305 kts 341°
2026-05-04 12:46 -41.51043 -67.89472 25062 ft 305 kts 341°
2026-05-04 12:46 -41.48940 -67.89722 25060 ft 305 kts 341°
2026-05-04 12:46 -41.46804 -67.89973 25057 ft 305 kts 341°
2026-05-04 12:47 -41.44690 -67.90224 25063 ft 305 kts 341°
2026-05-04 12:47 -41.42583 -67.90472 25068 ft 305 kts 341°
2026-05-04 12:47 -41.40463 -67.90723 25062 ft 305 kts 341°
2026-05-04 12:47 -41.38355 -67.90972 25071 ft 304 kts 341°
2026-05-04 12:48 -41.36237 -67.91222 25063 ft 305 kts 341°
2026-05-04 12:48 -41.34125 -67.91471 25053 ft 305 kts 341°
2026-05-04 12:48 -41.32017 -67.91719 25048 ft 305 kts 341°
2026-05-04 12:48 -41.29902 -67.91968 25062 ft 306 kts 341°
2026-05-04 12:49 -41.27790 -67.92216 25074 ft 305 kts 341°
2026-05-04 12:49 -41.25677 -67.92464 25074 ft 305 kts 341°
2026-05-04 12:49 -41.23564 -67.92712 25075 ft 305 kts 341°
2026-05-04 12:49 -41.21449 -67.92961 25069 ft 305 kts 341°
2026-05-04 12:50 -41.19333 -67.93209 25061 ft 305 kts 341°
2026-05-04 12:50 -41.17194 -67.93459 25063 ft 305 kts 341°
2026-05-04 12:50 -41.15080 -67.93707 25070 ft 305 kts 341°
2026-05-04 12:50 -41.12974 -67.93953 25073 ft 305 kts 340°
2026-05-04 12:51 -41.10870 -67.94200 25072 ft 305 kts 340°
2026-05-04 12:51 -41.08767 -67.94450 25069 ft 305 kts 340°
2026-05-04 12:51 -41.06659 -67.94711 25070 ft 304 kts 340°
2026-05-04 12:51 -41.04527 -67.94978 25075 ft 304 kts 340°
2026-05-04 12:52 -41.02425 -67.95242 25098 ft 304 kts 340°
2026-05-04 12:52 -41.00320 -67.95505 25088 ft 304 kts 340°
2026-05-04 12:52 -40.98219 -67.95766 25101 ft 304 kts 340°
2026-05-04 12:52 -40.96117 -67.96028 25098 ft 305 kts 340°
2026-05-04 12:53 -40.93984 -67.96294 25091 ft 305 kts 340°
2026-05-04 12:53 -40.91882 -67.96555 25107 ft 305 kts 340°
2026-05-04 12:53 -40.89766 -67.96816 25109 ft 305 kts 340°
2026-05-04 12:53 -40.87657 -67.97078 25098 ft 306 kts 340°
2026-05-04 12:54 -40.85545 -67.97340 25103 ft 306 kts 340°
2026-05-04 12:54 -40.83426 -67.97602 25110 ft 306 kts 341°
2026-05-04 12:54 -40.81282 -67.97866 25101 ft 306 kts 340°
2026-05-04 12:54 -40.79172 -67.98128 25106 ft 306 kts 340°
2026-05-04 12:55 -40.77052 -67.98390 25105 ft 307 kts 340°
2026-05-04 12:55 -40.74932 -67.98651 25098 ft 307 kts 340°
2026-05-04 12:55 -40.72808 -67.98913 25111 ft 306 kts 340°
2026-05-04 12:55 -40.70686 -67.99174 25100 ft 307 kts 340°
2026-05-04 12:56 -40.68561 -67.99425 25094 ft 308 kts 341°
2026-05-04 12:56 -40.66433 -67.99650 25097 ft 308 kts 341°
2026-05-04 12:56 -40.64279 -67.99875 25096 ft 308 kts 341°
2026-05-04 12:56 -40.62154 -68.00098 25109 ft 308 kts 341°
2026-05-04 12:57 -40.60020 -68.00323 25114 ft 308 kts 341°
2026-05-04 12:57 -40.57881 -68.00546 25102 ft 308 kts 341°
2026-05-04 12:57 -40.55722 -68.00775 25111 ft 308 kts 341°
2026-05-04 12:57 -40.53589 -68.01000 25101 ft 309 kts 341°
2026-05-04 12:58 -40.51455 -68.01225 25096 ft 309 kts 341°
2026-05-04 12:58 -40.49316 -68.01453 25104 ft 309 kts 341°
2026-05-04 12:58 -40.47176 -68.01678 25105 ft 309 kts 341°
2026-05-04 12:58 -40.45041 -68.01904 25103 ft 309 kts 341°
2026-05-04 12:59 -40.42902 -68.02129 25102 ft 309 kts 341°
2026-05-04 12:59 -40.40734 -68.02359 25106 ft 309 kts 341°
2026-05-04 12:59 -40.38596 -68.02583 25125 ft 309 kts 341°
2026-05-04 12:59 -40.36443 -68.02786 25123 ft 310 kts 342°
2026-05-04 13:00 -40.34292 -68.02977 25113 ft 311 kts 342°
2026-05-04 13:00 -40.32139 -68.03167 25116 ft 310 kts 342°
2026-05-04 13:00 -40.29984 -68.03358 25117 ft 310 kts 342°
2026-05-04 13:00 -40.27835 -68.03548 25131 ft 310 kts 342°
2026-05-04 13:01 -40.25688 -68.03740 25128 ft 310 kts 342°
2026-05-04 13:01 -40.23506 -68.03936 25120 ft 311 kts 341°
2026-05-04 13:01 -40.21354 -68.04132 25110 ft 312 kts 342°
2026-05-04 13:01 -40.19206 -68.04320 25123 ft 312 kts 341°
2026-05-04 13:02 -40.17031 -68.04514 25129 ft 312 kts 342°
2026-05-04 13:02 -40.14875 -68.04707 25120 ft 312 kts 342°
2026-05-04 13:02 -40.12686 -68.04902 25125 ft 312 kts 342°
2026-05-04 13:02 -40.10521 -68.05095 25122 ft 312 kts 341°
2026-05-04 13:03 -40.08359 -68.05288 25125 ft 313 kts 342°
2026-05-04 13:03 -40.06190 -68.05482 25111 ft 313 kts 342°
2026-05-04 13:03 -40.03994 -68.05678 25123 ft 313 kts 341°
2026-05-04 13:03 -40.01825 -68.05871 25118 ft 313 kts 342°
2026-05-04 13:04 -39.99652 -68.06065 25123 ft 313 kts 342°
2026-05-04 13:04 -39.97476 -68.06259 25114 ft 314 kts 342°
2026-05-04 13:04 -39.95294 -68.06454 25109 ft 314 kts 342°
2026-05-04 13:04 -39.93119 -68.06646 25108 ft 314 kts 342°
2026-05-04 13:05 -39.90953 -68.06838 25128 ft 314 kts 342°
2026-05-04 13:05 -39.88742 -68.07035 25122 ft 314 kts 341°
2026-05-04 13:05 -39.86562 -68.07229 25115 ft 315 kts 342°
2026-05-04 13:05 -39.84383 -68.07422 25123 ft 315 kts 342°
2026-05-04 13:06 -39.82208 -68.07614 25124 ft 315 kts 342°
2026-05-04 13:06 -39.80005 -68.07810 25119 ft 315 kts 342°
2026-05-04 13:06 -39.77829 -68.08012 25131 ft 315 kts 342°
2026-05-04 13:06 -39.75651 -68.08218 25113 ft 315 kts 342°
2026-05-04 13:07 -39.73449 -68.08424 25115 ft 315 kts 341°
2026-05-04 13:07 -39.71270 -68.08628 25128 ft 315 kts 341°
2026-05-04 13:07 -39.69089 -68.08833 25137 ft 315 kts 341°
2026-05-04 13:07 -39.66912 -68.09038 25139 ft 315 kts 341°
2026-05-04 13:08 -39.64697 -68.09244 25133 ft 316 kts 342°
2026-05-04 13:08 -39.62519 -68.09448 25133 ft 316 kts 342°
2026-05-04 13:08 -39.60327 -68.09653 25129 ft 316 kts 342°
2026-05-04 13:08 -39.58129 -68.09858 25123 ft 317 kts 342°
2026-05-04 13:09 -39.55940 -68.10061 25126 ft 317 kts 341°
2026-05-04 13:09 -39.53721 -68.10267 25126 ft 317 kts 342°
2026-05-04 13:09 -39.51527 -68.10473 25111 ft 318 kts 342°
2026-05-04 13:09 -39.49328 -68.10678 25122 ft 318 kts 342°
2026-05-04 13:10 -39.47123 -68.10882 25134 ft 318 kts 342°
2026-05-04 13:10 -39.44909 -68.11051 25129 ft 322 kts 345°
2026-05-04 13:10 -39.42629 -68.10733 25121 ft 344 kts
2026-05-04 13:10 -39.40373 -68.09512 25139 ft 358 kts 16°
2026-05-04 13:11 -39.38146 -68.07984 25150 ft 358 kts 15°
2026-05-04 13:11 -39.35905 -68.06718 25138 ft 350 kts
2026-05-04 13:11 -39.33628 -68.05636 25136 ft 349 kts
2026-05-04 13:11 -39.31353 -68.04563 25148 ft 349 kts
2026-05-04 13:12 -39.29056 -68.03474 25315 ft 344 kts
2026-05-04 13:12 -39.26830 -68.02418 25345 ft 341 kts
2026-05-04 13:12 -39.24602 -68.01367 25223 ft 344 kts
2026-05-04 13:12 -39.22335 -68.00298 25074 ft 346 kts
2026-05-04 13:13 -39.20081 -67.99232 24862 ft 348 kts
2026-05-04 13:13 -39.17810 -67.98158 24621 ft 349 kts
2026-05-04 13:13 -39.15503 -67.97066 24364 ft 349 kts
2026-05-04 13:13 -39.13253 -67.95997 24077 ft 342 kts
2026-05-04 13:14 -39.11050 -67.94950 23766 ft 334 kts
2026-05-04 13:14 -39.08907 -67.93932 23456 ft 326 kts
2026-05-04 13:14 -39.06803 -67.92935 23149 ft 318 kts
2026-05-04 13:14 -39.04732 -67.92191 22848 ft 295 kts 353°
2026-05-04 13:15 -39.02770 -67.92143 22547 ft 275 kts 344°
2026-05-04 13:15 -39.00845 -67.91886 22233 ft 289 kts
2026-05-04 13:15 -38.99055 -67.90620 21916 ft 305 kts 31°
2026-05-04 13:15 -38.97739 -67.88466 21610 ft 312 kts 59°
2026-05-04 13:16 -38.97030 -67.85861 21324 ft 308 kts 71°
2026-05-04 13:16 -38.96473 -67.83246 21037 ft 302 kts 72°
2026-05-04 13:16 -38.95939 -67.80669 20725 ft 295 kts 72°
2026-05-04 13:16 -38.95421 -67.78127 20412 ft 289 kts 72°
2026-05-04 13:17 -38.94914 -67.75672 20110 ft 283 kts 71°
2026-05-04 13:17 -38.94429 -67.73274 19821 ft 276 kts 71°
2026-05-04 13:17 -38.93961 -67.70912 19500 ft 271 kts 71°
2026-05-04 13:17 -38.93510 -67.68604 19178 ft 265 kts 72°
2026-05-04 13:18 -38.93153 -67.66317 18849 ft 261 kts 82°
2026-05-04 13:18 -38.93031 -67.63997 18520 ft 255 kts 86°
2026-05-04 13:18 -38.92939 -67.61754 18198 ft 250 kts 85°
2026-05-04 13:18 -38.92858 -67.59541 17889 ft 251 kts 86°
2026-05-04 13:19 -38.92784 -67.57304 17589 ft 255 kts 86°
2026-05-04 13:19 -38.92704 -67.54997 17295 ft 260 kts 86°
2026-05-04 13:19 -38.92626 -67.52677 17001 ft 265 kts 86°
2026-05-04 13:19 -38.92553 -67.50270 16701 ft 270 kts 85°
2026-05-04 13:20 -38.92482 -67.47855 16397 ft 274 kts 86°
2026-05-04 13:20 -38.92416 -67.45383 16095 ft 278 kts 86°
2026-05-04 13:20 -38.92355 -67.42892 15805 ft 283 kts 90°
2026-05-04 13:20 -38.92675 -67.40420 15490 ft 285 kts 115°
2026-05-04 13:21 -38.93749 -67.38358 15179 ft 274 kts 146°
2026-05-04 13:21 -38.95328 -67.37162 14871 ft 255 kts 175°
2026-05-04 13:21 -38.96997 -67.37037 14562 ft 233 kts 204°
2026-05-04 13:21 -38.98360 -67.37906 14250 ft 211 kts 233°
2026-05-04 13:22 -38.99063 -67.39442 13934 ft 196 kts 262°
2026-05-04 13:22 -38.99095 -67.41171 13656 ft 195 kts 275°
2026-05-04 13:22 -38.99031 -67.42920 13389 ft 197 kts 274°
2026-05-04 13:22 -38.98983 -67.44698 13121 ft 200 kts 274°
2026-05-04 13:23 -38.98921 -67.46473 12822 ft 199 kts 275°
2026-05-04 13:23 -38.98793 -67.48238 12509 ft 199 kts 277°
2026-05-04 13:23 -38.98656 -67.49994 12207 ft 197 kts 277°
2026-05-04 13:23 -38.98529 -67.51730 11905 ft 193 kts 277°
2026-05-04 13:24 -38.98404 -67.53441 11600 ft 188 kts 277°
2026-05-04 13:24 -38.98293 -67.55090 11299 ft 184 kts 276°
2026-05-04 13:24 -38.98185 -67.56705 10995 ft 180 kts 277°
2026-05-04 13:25 -38.97991 -67.59842 10389 ft 173 kts 277°
2026-05-04 13:25 -38.97903 -67.61382 10085 ft 170 kts 276°
2026-05-04 13:25 -38.97825 -67.62875 9783 ft 166 kts 277°
2026-05-04 13:25 -38.97755 -67.64338 9481 ft 163 kts 277°
2026-05-04 13:26 -38.97684 -67.65758 9188 ft 159 kts 277°
2026-05-04 13:26 -38.97613 -67.67152 8935 ft 153 kts 277°
2026-05-04 13:26 -38.97560 -67.68484 8688 ft 146 kts 276°
2026-05-04 13:26 -38.97513 -67.69735 8461 ft 138 kts 275°
2026-05-04 13:27 -38.97475 -67.70912 8268 ft 126 kts 276°
2026-05-04 13:27 -38.97439 -67.72019 8098 ft 124 kts 276°
2026-05-04 13:27 -38.97396 -67.73163 7956 ft 129 kts 276°
2026-05-04 13:27 -38.97351 -67.74312 7824 ft 133 kts 276°
2026-05-04 13:28 -38.97302 -67.75530 7653 ft 139 kts 276°
2026-05-04 13:28 -38.97207 -67.76789 7475 ft 144 kts 283°
2026-05-04 13:28 -38.96932 -67.78046 7309 ft 147 kts 288°
2026-05-04 13:28 -38.96623 -67.79311 7105 ft 148 kts 287°
2026-05-04 13:29 -38.96308 -67.80582 6914 ft 149 kts 288°
2026-05-04 13:29 -38.96006 -67.81853 6719 ft 147 kts 286°
2026-05-04 13:29 -38.95712 -67.83066 6513 ft 140 kts 287°
2026-05-04 13:29 -38.95427 -67.84230 6294 ft 133 kts 287°
2026-05-04 13:30 -38.95163 -67.85326 6044 ft 125 kts 287°
2026-05-04 13:30 -38.94908 -67.86367 5784 ft 121 kts 288°
2026-05-04 13:30 -38.94657 -67.87402 5535 ft 122 kts 283°
2026-05-04 13:30 -38.94627 -67.88500 5251 ft 125 kts 270°
2026-05-04 13:31 -38.94664 -67.89612 5069 ft 122 kts 270°
2026-05-04 13:31 -38.94700 -67.90691 4883 ft 120 kts 270°
2026-05-04 13:31 -38.94752 -67.91769 4693 ft 121 kts 268°
2026-05-04 13:31 -38.94821 -67.92855 4493 ft 122 kts 268°
2026-05-04 13:32 -38.94888 -67.93936 4297 ft 123 kts 268°
2026-05-04 13:32 -38.94949 -67.95045 4096 ft 124 kts 268°
2026-05-04 13:32 -38.95004 -67.96139 3904 ft 125 kts 268°
2026-05-04 13:32 -38.95053 -67.97267 3724 ft 126 kts 267°
2026-05-04 13:33 -38.95092 -67.98396 3536 ft 128 kts 268°
2026-05-04 13:33 -38.95121 -67.99558 3335 ft 131 kts 268°
2026-05-04 13:33 -38.95145 -68.00742 3149 ft 133 kts 268°
2026-05-04 13:33 -38.95167 -68.01929 2962 ft 135 kts 268°
2026-05-04 13:34 -38.95195 -68.03144 2756 ft 133 kts 268°
2026-05-04 13:34 -38.95224 -68.04309 2539 ft 128 kts 271°
2026-05-04 13:34 -38.95170 -68.05429 2285 ft 124 kts 276°
2026-05-04 13:34 -38.95077 -68.06551 1942 ft 130 kts 276°
2026-05-04 13:35 -38.94989 -68.07698 1723 ft 128 kts 275°
2026-05-04 13:35 -38.94913 -68.09975 1478 ft 130 kts 270°
2026-05-04 13:35 -38.94912 -68.11153 1344 ft 133 kts 270°
2026-05-04 13:36 -38.94904 -68.12345 1158 ft 134 kts 269°
2026-05-04 13:36 -38.94905 -68.13525 1013 ft 131 kts 269°
2026-05-04 13:36 -38.94907 -68.14687 905 ft 125 kts 269°
2026-05-04 13:36 -38.94904 -68.15489 903 ft 61 kts 270°
2026-05-04 13:37 -38.94902 -68.15852 903 ft 17 kts 275°
2026-05-04 13:37 -38.94899 -68.15980 903 ft 15 kts 271°
2026-05-04 13:37 -38.94907 -68.16084 903 ft 8 kts 262°
2026-05-04 13:37 -38.94920 -68.16111 903 ft 4 kts 146°
2026-05-04 13:38 -38.94899 -68.15992 903 ft 15 kts 84°
2026-05-04 13:38 -38.94899 -68.15825 903 ft 17 kts 93°
2026-05-04 13:38 -38.94897 -68.15649 903 ft 22 kts 84°
2026-05-04 13:38 -38.94888 -68.15457 903 ft 21 kts 88°
2026-05-04 13:39 -38.94889 -68.15268 903 ft 22 kts 91°
2026-05-04 13:39 -38.94914 -68.15129 903 ft 15 kts 120°
2026-05-04 13:39 -38.94979 -68.15029 903 ft 14 kts 139°
2026-05-04 13:39 -38.95050 -68.14947 903 ft 12 kts 135°
2026-05-04 13:40 -38.95092 -68.14848 903 ft 13 kts 95°
2026-05-04 13:40 -38.95085 -68.14732 903 ft 13 kts 88°
2026-05-04 13:40 -38.95092 -68.14613 903 ft 13 kts 94°
2026-05-04 13:40 -38.95092 -68.14493 903 ft 13 kts 90°
2026-05-04 13:41 -38.95092 -68.14368 903 ft 13 kts 89°
2026-05-04 13:41 -38.95090 -68.14244 903 ft 14 kts 89°
2026-05-04 13:41 -38.95090 -68.14171 903 ft 8 kts 91°
2026-05-04 13:42 -38.95133 -68.14158 904 ft 4 kts 189°
2026-05-04 13:42 -38.95144 -68.14159 904 ft 0 kts 184°